Torna al catalogo

STARLINK-36804

AttivoComunicazioniSSO
NORAD 67799·PAYLOAD·🇺🇸 United States

Lanciato Feb 15, 2026 da Vandenberg Space Force Base

Loading…

Prossimi Passaggi (prossime 24 ore)

TLE

AggiornatoSource: CelesTrak SupGP

Epoca: Sep 15, 2026, 03:15 UTC

1 67799C 26032C   26258.13590278 -.00057891  00000+0 -17968-2 0  2581
2 67799  97.2855  84.5429 0001748  92.5967  75.6746 15.33472174    19

Traccia STARLINK-36804 in tempo reale con AllMySat

Download on the App Store